Regional Weather Roundup
Issued by NWS

Home | Current Version | Previous Version | Text Only | Print | Product List | Glossary Off
Versions: 1 2 3 4 5 6 7 8 9 10 11 12 13 14 15 16 17 18 19 20 21 22 23 24 25 26 27 28 29 30 31 32 33 34 35 36 37 38 39 40 41 42 43 44 45 46 47 48 49 50

000
ASUS43 KMPX 010701
RWRMN
WEATHER ROUNDUP FOR MINNESOTA
NATIONAL WEATHER SERVICE TWIN CITIES/CHANHASSEN MN
200 AM CDT WED JUL 01 2015


NOTE: "FAIR" INDICATES FEW OR NO CLOUDS BELOW 12,000 FEET WITH NO
SIGNIFICANT WEATHER AND/OR OBSTRUCTIONS TO VISIBILITY. N/A MEANS
CURRENT SKY AND/OR WEATHER CONDITIONS ARE NOT AVAILABLE.

MNZ060>063-068>070-010800-
   Twin Cities Metro

CITY           SKY/WX    TMP DP  RH WIND       PRES   REMARKS
TWIN CITIES    CLOUDY    62  51  67 E8        29.96S
ST PAUL        PTCLDY    62  51  67 SE6       29.97S
CRYSTAL        MOCLDY    64  52  64 E7        29.95S
BLAINE         PTCLDY    61  54  77 E3        29.97R
LAKEVILLE      MOCLDY    55  54  94 CALM      29.97R
EDEN PRAIRIE   MOCLDY    63  53  70 E5        29.95R
SOUTH ST PAUL  PTCLDY    61  50  65 CALM      29.97R
LAKE ELMO      FAIR      59  50  72 E3        29.98S
$$
MNZ001>005-007-008-013>017-022>024-027-028-010800-
   Northwest Minnesota

CITY           SKY/WX    TMP DP  RH WIND       PRES   REMARKS
BEMIDJI        MOCLDY    56  53  88 CALM      29.96S
HALLOCK        PTCLDY    61  57  88 CALM      29.93R
ROSEAU         PTCLDY    57  54  88 CALM      29.95S
WARROAD        MOCLDY    59  55  88 S5        29.96S
THIEF RVR FALL MOCLDY    61  54  77 CALM      29.95S
CROOKSTON      PTCLDY    61  54  77 CALM      29.94R
FOSSTON        MOCLDY    55  50  82 CALM      29.95S
DETROIT LAKES  CLOUDY    64  59  82 E3        29.95S
MOORHEAD       CLOUDY    64  63  94 CALM      29.92F
PARK RAPIDS    CLOUDY    65  57  75 E3        29.95S
MAHNOMEN       FAIR      64  57  80 E3        29.93F
$$
MNZ006-009>011-018-025>026-010800-
   North Central Minnesota

CITY           SKY/WX    TMP DP  RH WIND       PRES   REMARKS
BAUDETTE       MOCLDY    56  52  86 SE3       29.95S
FLAG ISLAND    PTCLDY    66  57  72 S9        29.94S
INTL FALLS     PTCLDY    47  45  93 CALM      29.97S
WASKISH        MOCLDY    55  52  88 CALM      29.96S
BIG FORK       MOCLDY    54  52  94 CALM      29.97F
LONGVILLE      MOCLDY    57  55  94 CALM      29.96S
GRAND RAPIDS   PTCLDY    54  50  87 SE5       29.98S
CRANE LAKE     CLEAR     45  45 100 CALM      29.99S
ORR            PTCLDY    52  48  87 CALM      29.96S
COOK           PTCLDY    48  48 100 CALM      29.99S
WALKER         FAIR      56  55  97 CALM      29.96R
$$
MNZ012-019>021-037-010800-
   Northeast Minnesota

CITY           SKY/WX    TMP DP  RH WIND       PRES   REMARKS
DULUTH         CLEAR     49  46  90 E6        29.99S
ELY            CLEAR     48  46  93 CALM      29.99F
HIBBING        PTCLDY    47  45  93 CALM      29.99F
EVELETH        CLEAR     45  45 100 CALM      30.00F
DULUTH HARBOR  CLEAR     57  54  88 E7        30.00S
SILVER BAY     CLEAR     43  41  93 CALM      29.99S
GRAND MARAIS     N/A     48  41  76 NW5       29.99F
G MARAIS ARPRT CLEAR     39  36  87 CALM      30.01F
$$
MNZ029>031-032-039>041-046>048-054>057-064-010800-
   West Central Minnesota

CITY           SKY/WX    TMP DP  RH WIND       PRES   REMARKS
FERGUS FALLS   CLOUDY    66  61  82 CALM      29.92F
WHEATON        MOCLDY    61  59  94 CALM      29.94S
MORRIS         MOCLDY    64  61  88 E3        29.93R
ALEXANDRIA     MOCLDY    65  58  78 SE6       29.96R
ELBOW LAKE     FAIR      64  62  94 S3        29.93S
WADENA           N/A     63  57  82 E3        29.95S
GLENWOOD       MOCLDY    63  57  82 SE6       29.96R
APPLETON       PTCLDY    64  61  88 E3        29.92S
BENSON         MOCLDY    66  57  72 S5        29.93R
ORTONVILLE     PTCLDY    64  59  82 E6        29.91F
MADISON        PTCLDY    61  57  88 E5        29.92R
WILLMAR        FAIR      66  59  77 SE9       29.95F
$$
MNZ033>034-036-042>043-049>051-058-059-010800-
   Central Minnesota

CITY           SKY/WX    TMP DP  RH WIND       PRES   REMARKS
ST CLOUD       CLOUDY    62  56  80 SE5       29.96R
SAUK CENTRE    FAIR      63  58  85 SE3       29.96S
PAYNESVILLE    CLOUDY    61  55  79 E7        29.95F
AITKIN         MOCLDY    55  50  82 CALM      29.96S
PINE RIVER     MOCLDY    61  55  82 SE5       29.99F
BRAINERD       MOCLDY    60  53  77 SE5       29.97R
STAPLES        CLOUDY    63  55  77 S5        29.95S
LONG PRAIRIE   CLOUDY    63  57  82 CALM      29.96S
LITTLE FALLS   CLOUDY    61  54  77 SE3       29.96S
LITCHFIELD     CLOUDY    64  59  82 SE8       29.96S
BUFFALO        MOCLDY    62  55  77 CALM      29.97R
MAPLE LAKE     MOCLDY    64  58  79 SE3       29.97S
$$
MNZ037-044-045-052-053-010800-
   East Central Minnesota

CITY           SKY/WX    TMP DP  RH WIND       PRES   REMARKS
PRINCETON      MOCLDY    61  55  82 CALM      29.97S
MORA           MOCLDY    54  52  94 CALM      30.00R
CAMBRIDGE      MOCLDY    61  52  72 CALM      29.96R
RUSH CITY      MOCLDY    55  52  89 CALM      29.99R
MOOSE LAKE     CLEAR     50  50 100 NE3       29.98R
HINCKLEY       FAIR      54  52  94 CALM      29.99R
CLOQUET        CLEAR     48  46  93 CALM      29.99S
MCGREGOR       PTCLDY    52  50  93 CALM      29.99S
$$
MNZ071>073-080-081-089-090-097-098-010800-
   Southwest Minnesota

CITY           SKY/WX    TMP DP  RH WIND       PRES   REMARKS
MONTEVIDEO     PTCLDY    63  63 100 S5        29.93R
GRANITE FALLS  MOCLDY    63  58  83 E3        29.94S
CANBY          PTCLDY    62  60  94 CALM      29.92F FOG
MARSHALL       PTCLDY    63  57  82 SE6         N/A
REDWOOD FALLS  PTCLDY    65  58  78 E8        29.94R
OLIVIA         MOCLDY    63  55  77 SE9       29.92F
PIPESTONE      MOCLDY    64  61  88 SE5       29.93S
WINDOM         CLEAR     63  57  82 CALM      29.94S
WORTHINGTON    PTCLDY    61  55  82 E6        29.94S
JACKSON        CLEAR     61  59  94 E5        29.95S
TRACY          CLEAR     63  60  91 CALM      29.94S
SLAYTON        PTCLDY    61  60  97 CALM      29.95R
$$
MNZ065>067-074>077-082>085-091>093-010800-
   South Central Minnesota

CITY           SKY/WX    TMP DP  RH WIND       PRES   REMARKS
MANKATO        MOCLDY    64  54  68 E9        29.95S
NEW ULM        PTCLDY    64  57  77 E6        29.94F
ST JAMES       CLEAR     63  59  88 E5        29.95S
FAIRMONT       CLEAR     61  54  77 E5        29.94R
GLENCOE        MOCLDY    64  58  80 E7        29.95S
FARIBAULT      MOCLDY    61  52  72 NE5       29.97R
OWATONNA       PTCLDY    61  54  77 E8        29.97R
WASECA         PTCLDY    63  55  77 E7        29.97R
ALBERT LEA     PTCLDY    63  55  77 E7        29.96R
$$
MNZ078>079-086>088-094>096-010800-
   Southeast Minnesota

CITY           SKY/WX    TMP DP  RH WIND       PRES   REMARKS
ROCHESTER      PTCLDY    57  52  83 E8        29.97S
RED WING       PTCLDY    57  52  82 CALM      29.96S
STANTON        PTCLDY    59  54  82 E3        29.95R
DODGE CENTER   PTCLDY    59  55  88 E3        29.97R
WINONA         PTCLDY    59  50  72 CALM      29.96S HAZE
AUSTIN         PTCLDY    57  54  88 E3        29.96R
PRESTON        PTCLDY    56  51  83 CALM      29.98R
$$
ABBREVIATIONS USED IN REMARKS
   TC - TEMPERATURES IN CELSIUS
  WCI - WIND CHILL INDEX
   HX - HEAT INDEX
  VSB - VISIBILITY
$$



USA.gov is the U.S. government's official web portal to all federal, state and local government web resources and services.